Flag for Canada Weather past 2 weeks in Greater Sudbury, Ontario, Canada

Now
55 °F

Mostly cloudy.


Feels Like: 51 °F
Forecast: 50 / 69 °F
Wind: 17 mph from Northeast

Location: Sudbury

Current Time: May 28, 2015 at 12:15:45 AM

Latest Report: May 27, 2015 at 11:00 PM


Visibility: 10 mi

Pressure: 29.92 "Hg

Humidity: 88%

Dew point: 52 °F

Location of Greater SudburyLocation

Historic Weather in Greater Sudbury — Graph

°F

Greater Sudbury temperature yesterday

Maximum temperature yesterday: 72 °F (at 5:00 PM)
Minimum temperature yesterday: 57 °F (at 9:00 PM)
Average temperature yesterday: 64 °F

Past Weeks' High & Low Weather Summary

 TemperatureHumidityPressure
High81 °F (May 24, 2:00 PM)100% (May 16, 12:00 AM)30.46 "Hg (May 16, 12:00 AM)
Low28 °F (May 22, 6:00 AM)19% (May 13, 5:00 PM)29.75 "Hg (May 21, 4:00 PM)
Average54 °F65%30.05 "Hg
* Reported May 12 10:00 PM — May 27 10:00 PM, Greater Sudbury, Weather by CustomWeather, © 2015

Note: Actual official high and low records may vary slightly from our data, if they occured in-between our weather recording intervals... More about our weather records

Advertising

Greater Sudbury weather history for previous 24 hours

 ConditionsComfort  
Time TempWeatherWind HumidityBarometerVisibility
10:00 PM
Wed, May 27
57 °FDrizzle. Overcast.9 mph88%29.88 "Hg12 mi
9:00 PM57 °FMostly cloudy.10 mph82%29.85 "Hg20 mi
8:00 PM63 °FPartly sunny.20 mph68%29.82 "Hg20 mi
7:00 PM66 °FPartly sunny.18 mph68%29.80 "Hg20 mi
6:00 PM68 °FBroken clouds.15 mph69%29.79 "Hg20 mi
5:00 PM72 °FBroken clouds.23 mph65%29.79 "Hg20 mi
4:00 PM68 °FBroken clouds.20 mph73%29.79 "Hg20 mi
3:00 PM68 °FBroken clouds.20 mph73%29.80 "Hg20 mi
2:00 PM68 °FPartly sunny.21 mph73%29.80 "Hg20 mi
1:00 PM68 °FMostly cloudy.20 mph73%29.80 "Hg20 mi
12:00 PM64 °FMostly cloudy.20 mph83%29.79 "Hg15 mi
11:00 AM63 °FLow clouds.17 mph88%29.80 "Hg20 mi
10:00 AM64 °FMore clouds than sun.16 mph83%29.80 "Hg10 mi
9:00 AM63 °FLow clouds.15 mph88%29.80 "Hg10 mi
8:00 AM61 °FFog.13 mph94%29.78 "Hg6 mi
7:00 AM59 °FFog.16 mph100%29.78 "Hg5 mi
6:00 AM61 °FLow clouds.13 mph94%29.76 "Hg8 mi
5:00 AM61 °FLow clouds.17 mph94%29.76 "Hg8 mi
4:00 AM63 °FLow clouds.20 mph94%29.75 "Hg8 mi
3:00 AM63 °FSprinkles. Low clouds.17 mph100%29.75 "Hg6 mi
2:00 AM63 °FSprinkles. Overcast.13 mph100%29.76 "Hg10 mi
1:00 AM64 °FRain showers. Overcast.12 mph94%29.80 "Hg5 mi
12:00 AM64 °FSprinkles. Overcast.5 mph94%29.83 "Hg10 mi
Weather by CustomWeather, © 2015

See weather overviewHow to use our weather pages